Вернуться в каталог

HAIYANG 2A

АктивенНаукаSSO
NORAD 37781·PAYLOAD·🇨🇳 China

Запущен Aug 15, 2011 с Taiyuan Satellite Launch Center

Loading…

Ближайшие Пролёты (ближайшие 24 часа)

TLE

СвежийSource: Space-Track

Эпоха: Sep 14, 2026, 14:39 UTC

1 37781U 11043A   26257.61077131  .00000120  00000-0  18086-3 0  9992
2 37781  99.3446 258.0902 0003622 123.4993 236.6501 13.71464640758923

Отслеживайте HAIYANG 2A в реальном времени с AllMySat

Download on the App Store